TimeCDT,TemperatureF,Dew PointF,Humidity,Sea Level PressureIn,VisibilityMPH,Wind Direction,Wind SpeedMPH,Gust SpeedMPH,PrecipitationIn,Events,Conditions,WindDirDegrees,DateUTC
12:14 AM,30.2,23.0,75,30.49,10.0,North,9.2,-,N/A,,Clear,360,2013-05-03 05:14:00
12:34 AM,28.4,23.0,80,30.48,10.0,North,9.2,-,N/A,,Clear,360,2013-05-03 05:34:00
12:53 AM,28.4,23.0,80,30.48,10.0,North,9.2,-,N/A,,Clear,360,2013-05-03 05:53:00
1:14 AM,28.4,23.0,80,30.47,10.0,North,8.1,-,N/A,,Clear,360,2013-05-03 06:14:00
1:34 AM,28.4,23.0,80,30.47,10.0,North,8.1,-,N/A,,Clear,350,2013-05-03 06:34:00
1:53 AM,26.6,21.2,80,30.47,10.0,North,6.9,-,N/A,,Clear,350,2013-05-03 06:53:00
2:14 AM,26.6,21.2,80,30.46,10.0,NNW,8.1,-,N/A,,Clear,340,2013-05-03 07:14:00
2:34 AM,26.6,21.2,80,30.46,10.0,NNW,8.1,-,N/A,,Clear,340,2013-05-03 07:34:00
3:14 AM,26.6,21.2,80,30.45,10.0,NNW,8.1,-,N/A,,Clear,340,2013-05-03 08:14:00
3:34 AM,26.6,21.2,80,30.44,10.0,NNW,8.1,-,N/A,,Clear,340,2013-05-03 08:34:00
3:53 AM,24.8,21.2,86,30.43,10.0,NNW,8.1,-,N/A,,Clear,330,2013-05-03 08:53:00
4:14 AM,24.8,21.2,86,30.43,10.0,NNW,8.1,-,N/A,,Clear,340,2013-05-03 09:14:00
4:34 AM,24.8,21.2,86,30.43,10.0,NNW,9.2,-,N/A,,Clear,340,2013-05-03 09:34:00
4:53 AM,24.8,21.2,86,30.43,10.0,NNW,6.9,-,N/A,,Clear,340,2013-05-03 09:53:00
5:14 AM,24.8,21.2,86,30.43,10.0,North,6.9,-,N/A,,Clear,350,2013-05-03 10:14:00
5:34 AM,24.8,21.2,86,30.42,10.0,North,6.9,-,N/A,,Clear,350,2013-05-03 10:34:00
5:53 AM,23.0,19.4,86,30.41,10.0,NNW,8.1,-,N/A,,Clear,340,2013-05-03 10:53:00
6:14 AM,23.0,19.4,86,30.41,10.0,NNW,6.9,-,N/A,,Clear,340,2013-05-03 11:14:00
6:34 AM,24.8,21.2,86,30.40,10.0,North,6.9,-,N/A,,Clear,350,2013-05-03 11:34:00
6:53 AM,24.8,21.2,86,30.41,10.0,NNW,8.1,-,N/A,,Clear,340,2013-05-03 11:53:00
7:14 AM,26.6,21.2,80,30.41,10.0,NNW,5.8,-,N/A,,Clear,340,2013-05-03 12:14:00
7:34 AM,26.6,23.0,86,30.41,10.0,NNW,8.1,-,N/A,,Clear,340,2013-05-03 12:34:00
7:53 AM,28.4,24.8,86,30.40,10.0,North,8.1,-,N/A,,Clear,350,2013-05-03 12:53:00
8:14 AM,32.0,24.8,75,30.39,10.0,North,10.4,-,N/A,,Clear,360,2013-05-03 13:14:00
8:33 AM,33.8,24.8,70,30.38,10.0,NNE,15.0,-,N/A,,Clear,20,2013-05-03 13:33:00
8:54 AM,35.6,23.0,60,30.37,10.0,NNE,17.3,20.7,N/A,,Clear,20,2013-05-03 13:54:00
9:14 AM,35.6,21.2,56,30.37,10.0,NNE,13.8,20.7,N/A,,Clear,20,2013-05-03 14:14:00
9:33 AM,37.4,21.2,52,30.36,10.0,North,16.1,-,N/A,,Clear,360,2013-05-03 14:33:00
9:54 AM,37.4,21.2,52,30.35,10.0,North,13.8,19.6,N/A,,Clear,10,2013-05-03 14:54:00
10:14 AM,37.4,21.2,52,30.35,10.0,NNE,16.1,19.6,N/A,,Clear,20,2013-05-03 15:14:00
10:33 AM,39.2,21.2,49,30.34,10.0,North,16.1,20.7,N/A,,Clear,360,2013-05-03 15:33:00
10:54 AM,39.2,21.2,49,30.34,10.0,North,15.0,19.6,N/A,,Clear,10,2013-05-03 15:54:00
11:14 AM,41.0,21.2,45,30.33,10.0,North,12.7,20.7,N/A,,Clear,360,2013-05-03 16:14:00
11:33 AM,41.0,23.0,49,30.32,10.0,North,13.8,23.0,N/A,,Clear,360,2013-05-03 16:33:00
11:54 AM,42.8,21.2,42,30.31,10.0,North,15.0,18.4,N/A,,Clear,10,2013-05-03 16:54:00
12:14 PM,42.8,21.2,42,30.29,10.0,North,16.1,24.2,N/A,,Clear,360,2013-05-03 17:14:00
12:33 PM,44.6,21.2,39,30.27,10.0,North,16.1,25.3,N/A,,Clear,10,2013-05-03 17:33:00
12:53 PM,44.6,21.2,39,30.27,10.0,North,17.3,26.5,N/A,,Clear,10,2013-05-03 17:53:00
1:14 PM,46.4,21.2,37,30.26,10.0,North,21.9,26.5,N/A,,Clear,10,2013-05-03 18:14:00
1:33 PM,46.4,21.2,37,30.25,10.0,NNE,16.1,23.0,N/A,,Clear,20,2013-05-03 18:33:00
1:54 PM,48.2,19.4,32,30.25,10.0,NNE,20.7,-,N/A,,Clear,30,2013-05-03 18:54:00
2:14 PM,48.2,19.4,32,30.24,10.0,North,15.0,21.9,N/A,,Clear,360,2013-05-03 19:14:00
2:33 PM,50.0,21.2,32,30.23,10.0,North,19.6,25.3,N/A,,Clear,10,2013-05-03 19:33:00
2:54 PM,51.8,19.4,28,30.22,10.0,North,18.4,27.6,N/A,,Clear,10,2013-05-03 19:54:00
3:14 PM,50.0,21.2,32,30.21,10.0,North,16.1,24.2,N/A,,Clear,10,2013-05-03 20:14:00
3:33 PM,50.0,19.4,30,30.21,10.0,NNE,23.0,29.9,N/A,,Clear,30,2013-05-03 20:33:00
3:54 PM,51.8,19.4,28,30.19,10.0,North,16.1,26.5,N/A,,Clear,10,2013-05-03 20:54:00
4:14 PM,50.0,19.4,30,30.19,10.0,North,20.7,26.5,N/A,,Clear,10,2013-05-03 21:14:00
4:33 PM,50.0,17.6,28,30.19,10.0,NE,20.7,25.3,N/A,,Clear,40,2013-05-03 21:33:00
4:54 PM,50.0,17.6,28,30.19,10.0,NNE,17.3,-,N/A,,Clear,20,2013-05-03 21:54:00
5:13 PM,48.2,17.6,30,30.19,10.0,NNE,17.3,23.0,N/A,,Clear,30,2013-05-03 22:13:00
5:34 PM,48.2,19.4,32,30.18,10.0,NNE,17.3,-,N/A,,Clear,20,2013-05-03 22:34:00
5:54 PM,48.2,19.4,32,30.18,10.0,NNE,17.3,-,N/A,,Scattered Clouds,30,2013-05-03 22:54:00
6:13 PM,48.2,17.6,30,30.18,10.0,NE,13.8,21.9,N/A,,Scattered Clouds,40,2013-05-03 23:13:00
6:34 PM,46.4,17.6,32,30.18,10.0,NE,17.3,20.7,N/A,,Scattered Clouds,40,2013-05-03 23:34:00
6:54 PM,46.4,19.4,34,30.19,10.0,NE,15.0,-,N/A,,Mostly Cloudy,50,2013-05-03 23:54:00
7:13 PM,46.4,19.4,34,30.18,10.0,NE,18.4,-,N/A,,Scattered Clouds,40,2013-05-04 00:13:00
7:33 PM,46.4,19.4,34,30.19,10.0,NE,16.1,20.7,N/A,,Scattered Clouds,50,2013-05-04 00:33:00
7:54 PM,44.6,21.2,39,30.19,10.0,NE,12.7,-,N/A,,Scattered Clouds,40,2013-05-04 00:54:00
8:13 PM,44.6,19.4,37,30.19,10.0,NE,16.1,-,N/A,,Mostly Cloudy,40,2013-05-04 01:13:00
8:33 PM,44.6,19.4,37,30.19,10.0,NE,15.0,19.6,N/A,,Overcast,50,2013-05-04 01:33:00
8:54 PM,42.8,19.4,39,30.19,10.0,NNE,17.3,-,N/A,,Overcast,30,2013-05-04 01:54:00
9:13 PM,42.8,21.2,42,30.19,10.0,NNE,12.7,-,N/A,,Overcast,30,2013-05-04 02:13:00
9:33 PM,42.8,21.2,42,30.20,10.0,NNE,9.2,-,N/A,,Overcast,30,2013-05-04 02:33:00
9:54 PM,42.8,21.2,42,30.21,10.0,NE,9.2,-,N/A,,Overcast,50,2013-05-04 02:54:00
10:13 PM,42.8,21.2,42,30.20,10.0,NE,10.4,-,N/A,,Overcast,50,2013-05-04 03:13:00
10:34 PM,42.8,21.2,42,30.20,10.0,NE,11.5,-,N/A,,Mostly Cloudy,50,2013-05-04 03:34:00
10:53 PM,42.8,21.2,42,30.20,10.0,NE,9.2,-,N/A,,Mostly Cloudy,40,2013-05-04 03:53:00
11:14 PM,42.8,23.0,46,30.20,10.0,NE,8.1,-,N/A,,Overcast,40,2013-05-04 04:14:00
11:34 PM,42.8,21.2,42,30.19,10.0,NNE,8.1,-,N/A,,Overcast,20,2013-05-04 04:34:00
11:53 PM,42.8,21.2,42,30.19,10.0,NNE,10.4,-,N/A,,Overcast,20,2013-05-04 04:53:00